Location: Axtheid
(49.6213°N, 11.8205°E)
Time: 17:22:09
(UTC+00:00)

Cosmos 2084 - Pass Details

Date: 18 February 2020
Orbit: 567 x 615 km, 62.8° (Epoch: 27 March)

Event Time Altitude Azimuth Distance (km) Brightness Sun altitude
Rises 05:27:47 0° 216° (SW) 2,873 6.7 -8.8°
Reaches altitude 10° 05:30:03 10° 214° (SW) 1,972 5.9 -8.4°
Maximum altitude 05:34:30 73° 130° (SE) 648 3.9 -7.7°
Drops below altitude 10° 05:38:58 10° 47° (NE) 1,976 6.7 -7.0°
Sets 05:41:15 0° 45° (NE) 2,879 7.5 -6.6°
